Regional Weather Roundup
Issued by NWS

Home | Current Version | Previous Version | Graphics & Text | Print | Product List | Glossary Off
Versions: 1 2 3 4 5 6 7 8 9 10 11 12 13 14 15 16 17 18 19 20 21 22 23 24 25 26 27 28 29 30 31 32 33 34 35 36 37 38 39 40 41 42 43 44 45 46 47 48 49 50

000
ASUS43 KTOP 262159
RWRKS

WEATHER ROUNDUP FOR KANSAS
NATIONAL WEATHER SERVICE GOODLAND KS
500 PM CDT FRI MAY 26 2017

NOTE:  "FAIR" INDICATES FEW OR NO CLOUDS BELOW 12,000 FEET WITH NO
SIGNIFICANT WEATHER AND/OR OBSTRUCTIONS TO VISIBILITY.

KSZ001>006-013>018-027>032-041>047-262300-
NORTHWEST KANSAS

CITY           SKY/WX    TMP DP  RH WIND       PRES   REMARKS
GOODLAND       SUNNY     73  52  47 SE8       29.88F
HAYS           SUNNY     78  56  46 E9        29.84F
HILL CITY      SUNNY     78  51  38 E9        29.85F
RUSSELL        SUNNY     79  57  46 VRB3      29.82F
$$

KSZ061>065-074>080-084>089-262300-
SOUTHWEST KANSAS

CITY           SKY/WX    TMP DP  RH WIND       PRES   REMARKS
DODGE CITY     SUNNY     80  56  43 E12       29.85F
ELKHART          N/A     80  49  33 SE10        N/A
GARDEN CITY    SUNNY     80  50  34 SE10      29.85F
GREAT BEND     SUNNY     79  58  48 E7        29.84F
LIBERAL        SUNNY     82  53  36 VRB7      29.86S
$$

KSZ066>073-081>083-090>101-262300-
SOUTHEAST KANSAS

CITY           SKY/WX    TMP DP  RH WIND       PRES   REMARKS
CHANUTE        SUNNY     87  64  46 NW3       29.76S
COFFEYVILLE    PTSUNNY   88  70  55 NW6       29.75R
HUTCHINSON     SUNNY     84  61  45 NE8       29.80S
MEDICINE LODGE   N/A     86  59  39 NE9       29.79S
NEWTON         SUNNY     82  63  52 NE9       29.81S
PARSONS        PTSUNNY   86  65  49 VRB3      29.77R
WICHITA INTL   MOSUNNY   86  60  41 N9        29.78S
WICHITA JABRA  SUNNY     85  62  46 N9        29.78S
WINFIELD       SUNNY     86  62  44 N8        29.78R
$$

KSZ007>012-019>026-033>040-048>060-102>105-262300-
NORTHEAST KANSAS

CITY           SKY/WX    TMP DP  RH WIND       PRES   REMARKS
CONCORDIA      SUNNY     80  57  45 NE8       29.82S
EMPORIA        MOSUNNY   83  64  52 N7        29.77F
LAWRENCE       MOSUNNY   85  64  49 N9        29.76S
MANHATTAN      SUNNY     84  63  49 N6        29.78S
OLATHE IND     MOSUNNY   83  65  54 N9        29.78R
OLATHE EXE     MOSUNNY   83  63  50 NW8       29.77S
SALINA         SUNNY     84  61  45 N8        29.80F
TOPEKA BILLARD SUNNY     84  66  54 N6        29.76S
TOPEKA FORBES  SUNNY     86  65  49 N9        29.77S
$$




USA.gov is the U.S. government's official web portal to all federal, state and local government web resources and services.